Location: Ailingen
(47.6833°N, 9.5000°E)
Time: 06:11:21
(UTC+00:00)

Cosmos 1869 - Pass Details

Date: 18 November 2025
Orbit: 453 x 482 km, 82.5° (Epoch: 04 December)

Event Time Altitude Azimuth Distance (km) Brightness Sun altitude
Rises 16:39:39 0° 178° (S) 2,487 6.9 -9.7°
Reaches altitude 10° 16:41:45 10° 174° (S) 1,611 5.9 -10.1°
Maximum altitude 16:45:12 57° 96° (E) 552 3.0 -10.6°
Drops below altitude 10° 16:48:39 10° 17° (NNE) 1,611 5.4 -11.2°
Enters shadow 16:50:29 - 14° (NNE) 2,377 6.3 -11.5°
